Back to catalog

STARLINK-11651

AliveCommunicationsVLEO
NORAD 63664·PAYLOAD·🇺🇸 United States

Launched Apr 28, 2025 from Cape Canaveral Space Force Station

Loading…

Next Passes (next 24 hours)

TLE

FreshSource: CelesTrak SupGP

Epoch: Sep 15, 2026, 02:55 UTC

1 63664C 25085A   26258.12201389 -.00096368  00000+0 -74858-3 0  2580
2 63664  43.0008 216.2257 0001443 269.7070 270.0343 15.70883780    17

Track STARLINK-11651 in real time with AllMySat

Download on the App Store